CZ-3B DEB, 40851

Orbit data source: Space-Track

CZ-3B DEB, 40851 is space debris in HEO originally from a launch on Mon, 19 Dec 2011 UTC launched from the Xichang Space Center, China (XSC). Debris objects in space refer to the collection of defunct objects orbiting the Earth. Examples of debris include non-operational satellites, rocket bodies, and fragments generated from explosions, collisions, or faulty payload assembly.

Loading next visibility...
Identifier
40851, 2011-077AG
Orbit
HEO
Last TLE update
1 week ago
Origin
Manufacturer
CALT
Mission
Spacecraft
Bus & Motor
Unknown
Mass
Unknown
Launch date (UTC)
2011-12-19 (14 years ago)
Launch vehicle
Unknown
Launch site
Xichang Space Center, China (XSC)
Object type
Payload
Rocket body
Debris
Shape & HBR
Unknown
Radar Cross Section
Medium (>0.1 m² and <1 m²)

Expand to show TLE details & history

TLE from 1 week ago
0 CZ-3B DEB
1 40851U 11077AG  25172.05450513 -.00000186  00000-0 -46129-2 0  9995
2 40851  25.7152 115.7565 7332764 202.4890  92.3718  1.90205881 79368
Epoch: 2025-06-21T01:18Z
TLE epoch observation values (Epoch: 2025-06-21T01:18:29.243Z)
Latitude
-0.00002°
Longitude
-173.41575°
Altitude
33,104.557 km
Speed
2.389 km/s
True Right ascension
07h 42m 49s
True Declination
0° 00' 00"
Sunlit
Object was in daylight at epoch
Visualization orbit readout
Latitude
25.14096°
Longitude
-99.76184°
Altitude
17,377.565 km
Speed
4.368 km/s
Apparent Right ascension
11h 58m 07s
Apparent Declination
13° 48' 26"
Sunlit
Object is in daylight
Visualization observer readout
Local Sidereal Time
20:43:54
Azimuth
309.287° NW
Elevation
-19.87°
Doppler factor
1
Orbital elements
Apogee altitude
41,321.123 km
Perigee altitude
962.019 km
Semi-major axis
27,519.708 km
Eccentricity
0.73328
Inclination
25.7152°
RAAN
115.7565°
Arg. of periapsis
202.489°
True anomaly
Unknown
Mean anomaly
92.3718°
Eccentric anomaly
Unknown
Mean motion
0.47542 °/min
Orbital period
757.23 mins
BSTAR
-0.0046129
Loading maneuver chart data...
Loading SW <> Apogee altitude chart data...
Loading historical data...
Loading historical data...
Loading historical data...
Loading historical data...
Loading historical data...
Loading historical data...
Loading historical data...

CZ-3B DEB Visibility forecast

Observer location: undefined°, undefined°

Span
Click to sort rows by Start time (UTC) header in descending order
Start Az.
Max El. time (UTC)
Max El. Az.
Max El.
End time (UTC)
End Az.
359 mins2025-07-01 16:20:40.620Z91.308° ESE2025-07-01 20:48:40.620Z101.815° ESE32.873°2025-07-01 22:19:40.620Z83.935° E
|